Location: Alphen
(52.1351°N, 4.6549°E)
Time: 02:12:33
(UTC+00:00)

USA 215 - Pass Details

Date: 27 January 2021
Orbit: 1103 x 1105 km, 123.0° (Epoch: 14 February)

Event Time Altitude Azimuth Distance (km) Brightness Sun altitude
Rises 06:15:30 0° 85° (E) 3,923 7.6 -11.2°
Reaches altitude 10° 06:18:01 10° 81° (E) 2,966 6.7 -10.9°
Maximum altitude 06:24:25 60° 4° (N) 1,256 3.5 -9.9°
Enters shadow 06:30:40 11° 288° (WNW) 2,909 4.8 -9.0°
